Weather History for KELY - June, 2013

Change the Weather History Date:

Sunday, June 16, 2013

  Actual Average Record
Temperature  
Mean Temperature 62 °F 60 °F  
Max Temperature 84 °F 79 °F 93 °F (1985)
Min Temperature 39 °F 41 °F 23 °F (1895)
Degree Days  
Heating Degree Days 3 6  
Month to date heating degree days 46 127  
Since 1 June heating degree days 46 127  
Since 1 July heating degree days 7119 7474  
Cooling Degree Days 0 1  
Month to date cooling degree days 14 4  
Year to date cooling degree days 14 5  
Since 1 June cooling degree days 14 4  
Growing Degree Days 10 (Base 50)    
Moisture  
Dew Point 3 °F    
Average Humidity 15    
Maximum Humidity 25    
Minimum Humidity 4    
Precipitation  
Precipitation 0.00 in 0.02 in 0.57 in (1939)
Month to date precipitation T 0.46  
Year to date precipitation 3.11 4.89  
Snow  
Snow 0.00 in 0.00 in 0.00 in (1893)
Month to date snowfall 0.0 0.1  
Since 1 June snowfall 0.0 0.1  
Since 1 July snowfall 65.0 50.8  
Snow Depth 0.00 in    
Sea Level Pressure  
Sea Level Pressure 29.86 in    
Wind  
Wind Speed 11 mph (South)    
Max Wind Speed 21 mph    
Max Gust Speed 26 mph    
Visibility 10 miles    
Events      
T = Trace of Precipitation, MM = Missing Value Source: NWS Daily Summary

Daily Weather History Graph

Daily Weather History Graph

Search for Another Location

Airport or City:

Trip Planner

Search our weather history database for the weather conditions in past years. The results will help you decide how hot, cold, wet, or windy it might be!

Date:

Astronomy

Jun. 16, 2013 Rise Set
Actual Time 5:12 AM PDT 8:08 PM PDT
Civil Twilight 4:39 AM PDT 8:40 PM PDT
Nautical Twilight 3:59 AM PDT 9:21 PM PDT
Astronomical Twilight 3:11 AM PDT 10:08 PM PDT
Moon 12:50 PM PDT (6/16) 12:17 AM PDT (6/16)
Length of Visible Light 16h 00m
Length of Day
14h 55m
Waxing Crescent, 51% of the Moon is Illuminated
Jun 16
Waxing Crescent
Jun 23
Full
Jun 29
Last Quarter
Jul 8
New
Jul 15
First Quarter

Hourly Weather History & Observations

Time (PDT) Temp. Windchill Dew Point Humidity Pressure Visibility Wind Dir Wind Speed Gust Speed Precip Events Conditions
12:53 AM 48.0 °F - 5.0 °F 17% 29.82 in 10.0 mi South 15.0 mph - N/A   Clear
1:53 AM 46.9 °F - 3.9 °F 17% 29.83 in 10.0 mi South 11.5 mph - N/A   Clear
2:53 AM 46.0 °F 39.6 °F 3.0 °F 17% 29.83 in 10.0 mi South 15.0 mph - N/A   Clear
3:53 AM 41.0 °F 33.1 °F 5.0 °F 23% 29.86 in 10.0 mi South 15.0 mph - N/A   Clear
4:53 AM 39.0 °F 31.4 °F 5.0 °F 24% 29.88 in 10.0 mi South 12.7 mph - N/A   Clear
5:53 AM 39.9 °F 32.5 °F 7.0 °F 26% 29.89 in 10.0 mi South 12.7 mph - N/A   Clear
6:53 AM 51.1 °F - 10.9 °F 20% 29.87 in 10.0 mi SSE 10.4 mph - N/A   Clear
7:53 AM 66.0 °F - 5.0 °F 9% 29.84 in 10.0 mi SSW 11.5 mph - N/A   Clear
8:53 AM 73.0 °F - 3.9 °F 7% 29.87 in 10.0 mi SSE 6.9 mph 17.3 mph N/A   Clear
9:53 AM 75.9 °F - -0.0 °F 5% 29.86 in 10.0 mi SW 13.8 mph 19.6 mph N/A   Clear
10:53 AM 77.0 °F - 1.9 °F 5% 29.88 in 10.0 mi SW 13.8 mph 19.6 mph N/A   Clear
11:53 AM 79.0 °F - 3.0 °F 5% 29.88 in 10.0 mi SSW 17.3 mph 23.0 mph N/A   Clear
12:53 PM 80.1 °F - 1.9 °F 5% 29.88 in 10.0 mi SSE 9.2 mph - N/A   Clear
1:53 PM 82.0 °F - 3.0 °F 5% 29.86 in 10.0 mi South 9.2 mph 16.1 mph N/A   Clear
2:53 PM 82.9 °F - 1.9 °F 4% 29.84 in 10.0 mi West 9.2 mph - N/A   Clear
3:53 PM 82.9 °F - 1.9 °F 4% 29.85 in 10.0 mi SSW 10.4 mph 26.5 mph N/A   Clear
4:53 PM 82.9 °F - -2.0 °F 4% 29.86 in 10.0 mi SW 13.8 mph 23.0 mph N/A   Clear
5:53 PM 81.0 °F - -0.9 °F 4% 29.85 in 10.0 mi South 12.7 mph - N/A   Clear
6:53 PM 80.1 °F - -0.9 °F 4% 29.82 in 10.0 mi SSW 6.9 mph - N/A   Clear
7:53 PM 71.1 °F - 1.0 °F 6% 29.81 in 10.0 mi SW 8.1 mph - N/A   Clear
8:53 PM 61.0 °F - 3.9 °F 10% 29.83 in 10.0 mi SSE 9.2 mph - N/A   Clear
9:53 PM 62.1 °F - 1.0 °F 9% 29.85 in 10.0 mi WNW 3.5 mph - N/A   Clear
10:53 PM 55.9 °F - 3.0 °F 12% 29.87 in 10.0 mi SSE 11.5 mph - N/A   Clear
11:53 PM 52.0 °F - 6.1 °F 16% 29.90 in 10.0 mi SE 6.9 mph - N/A   Clear